Regional Weather Roundup
Issued by NWS

Home | Current Version | Previous Version | Text Only | Print | Product List | Glossary On
Versions: 1 2 3 4 5 6 7 8 9 10 11 12 13 14 15 16 17 18 19 20 21 22 23 24 25 26 27 28 29 30 31 32 33 34 35 36 37 38 39 40 41 42 43 44 45 46 47 48 49 50
000
ASUS43 KDTX 180301
RWRMI
MICHIGAN HOURLY REGIONAL WEATHER ROUNDUP
NATIONAL WEATHER SERVICE DETROIT/PONTIAC MI
1100 PM EDT FRI APR 17 2015

NOTE: "FAIR" INDICATES FEW OR NO CLOUDS BELOW 12,000 FEET WITH NO
SIGNIFICANT WEATHER AND/OR OBSTRUCTION TO VISIBILITY.

MIZ047>049-052>055-059>063-066>070-074>076-081>083-180400-
SOUTHEAST LOWER MICHIGAN

CITY           SKY/WX    TMP DP  RH WIND       PRES   REMARKS
ADRIAN         CLEAR     61  43  51 NW5       30.03S
ALMA           CLEAR     56  45  66 W5        30.01F
ANN ARBOR      CLEAR     52  44  74 W3        30.01S
BAD AXE        CLEAR     52  40  64 S3        29.99F
CARO           CLEAR     55  46  71 CALM      29.97F
DETROIT CITY   CLEAR     57  44  62 S3        30.01F
DETROIT        PTCLDY    57  44  62 CALM      30.02S
FLINT          CLEAR     61  41  47 W7        30.00S
GROSSE ILE     CLEAR     52  46  82 SE3       30.00F
HILLSDALE      CLEAR     59  40  48 CALM      30.04S
HOWELL         CLEAR     62  38  41 W5        30.01F

CITY           SKY/WX    TMP DP  RH WIND       PRES   REMARKS
JACKSON        CLEAR     56  41  57 SW3       30.02F
LAMBERTVILLE   CLEAR     57  46  67 CALM      30.02S
LANSING        CLEAR     61  39  44 CALM      30.02F
LAPEER         FAIR      57  45  63 CALM      30.00S
MASON          CLEAR     59  40  49 CALM      30.02S
MONROE         CLEAR     55  46  71 CALM      30.00S
PONTIAC        PTCLDY    60  42  51 CALM      30.01S
PORT HOPE        N/A     43  38  82 S5        29.98F
PORT HURON     CLEAR     54  48  82 S5        30.02S
TRI CITIES     CLEAR     61  41  47 W9        29.99S
TROY           CLEAR     62  38  41 CALM      30.03F
SAGINAW HB     CLEAR     63  39  42 W9        29.98F
$$
MIZ043>046-050>051-056>058-064>065-071>073-077>080-180400-
SOUTHWEST LOWER MICHIGAN

CITY           SKY/WX    TMP DP  RH WIND       PRES   REMARKS
BATTLE CREEK   CLEAR     58  42  55 CALM      30.03F
BENTON HARBOR  CLEAR     57  46  66 CALM      30.01S
BIG RAPIDS     CLEAR     53  40  60 CALM      30.00S
COLDWATER      CLEAR     57  41  55 CALM      30.03S
FREMONT        FAIR      55  33  42 SW3       30.01S
HOLLAND        CLEAR     56  44  64 CALM      30.02S
GRAND RAPIDS   CLEAR     61  39  44 W3        30.02S
IONIA          FAIR      58  40  51 W7        30.01F
KALAMAZOO      CLEAR     60  42  51 CALM      30.03S
LUDINGTON      CLEAR     48  40  73 CALM      30.00S
MARSHALL       CLEAR     53  40  61 SW7       30.02F
MOUNT PLEASANT CLEAR     56  42  59 W3        29.99F
MUSKEGON       CLEAR     50  41  71 CALM      30.01F
SOUTH HAVEN    CLEAR     55  44  67 CALM      30.01F
$$
MIZ016>042-180400-
NORTHERN LOWER MICHIGAN

CITY           SKY/WX    TMP DP  RH WIND       PRES   REMARKS
ALPENA         CLEAR     41  36  82 S3        29.99F
BEAVER ISLAND  CLEAR     41  32  71 CALM      29.98S
BELLAIRE       CLEAR     45  40  81 CALM      29.98F
CADILLAC       CLEAR     48  37  67 CALM      29.99F
CHARLEVOIX     CLEAR     46  35  66 CALM      30.00F
FRANKFORT      CLEAR     52  37  56 CALM      29.98S
GAYLORD        CLEAR     50  37  61 CALM      29.98F
GRAYLING       CLEAR     45  35  69 CALM      30.00S
HARBOR SPRINGS CLEAR     41  33  73 NE3       29.97F
HOUGHTON LAKE  CLEAR     46  38  73 CALM      30.00F
MANISTEE       CLEAR     45  39  81 CALM      30.00S
OSCODA         CLEAR     40  36  86 CALM      30.00F
PELLSTON       CLEAR     42  31  64 CALM      29.98F
ROGERS CITY    CLEAR     43  32  65 CALM      30.00S
TRAVERSE CITY  CLEAR     45  36  70 CALM      29.96F
$$
MIZ007>008-015-180400-
EASTERN UPPER MICHIGAN

CITY           SKY/WX    TMP DP  RH WIND       PRES   REMARKS
KINROSS        CLEAR     45  28  53 CALM      29.97F
MACKINAC ISLAN CLEAR     44  31  61 W3        29.97F
NEWBERRY       CLEAR     43  34  72 SW8       29.96F
S. S. MARIE    CLEAR     38  30  73 SW3       29.97F
MUNISING         N/A     43  29  57 S7        29.96F
$$
MIZ004>006-011>014-085-180400-
CENTRAL UPPER MICHIGAN

CITY           SKY/WX    TMP DP  RH WIND       PRES   REMARKS
MANISTIQUE     CLEAR     34  32  90 W6        29.99R WCI  29
ESCANABA       CLEAR     43  32  65 N5        30.00R
MENOMINEE      CLEAR     45  36  70 CALM      29.96F
$$
MIZ001>003-009>011-084-180400-
WESTERN UPPER MICHIGAN

CITY           SKY/WX    TMP DP  RH WIND       PRES   REMARKS
IRON MOUNTAIN  CLEAR     51  39  63 SE6       29.97R
HOUGHTON       CLEAR     50  30  46 W8        29.92F
COPPER HARBOR    N/A     50  27  40 W12       29.89F
IRONWOOD       CLEAR     48  34  57 SW5       29.97R
$$

ABBREVIATIONS USED IN REMARKS
   TC - TEMPERATURE IN CELSIUS
  WCI - WIND CHILL INDEX
   HX - HEAT INDEX
  VSB - VISIBILITY




USA.gov is the U.S. government's official web portal to all federal, state and local government web resources and services.